#Datum;Uhrzeit;WR;Pac;DaySum;Status;WR;Pac;DaySum;Status;Pdc1;Udc;Temp;WR;Pac;DaySum;Status;Pdc1;Udc;Temp;WR;Pac;DaySum;Status;Pdc1;Udc;Temp;WR;Pac;DaySum;Status;Pdc1;Pdc2;Udc1;Udc2;Temp;WR;Pac;DaySum;Status;Pdc1;Pdc2;Udc1;Udc2;Temp;WR;Pac;DaySum;Status;Pdc1;Udc;Temp;WR;Pac;DaySum;Status;Pdc1;Udc;Temp;WR;Pac;DaySum;Status;Pdc1;Udc;Temp
24.12.19;23:55:00;1;397;7681;0;2;0;7713;0;0;0;0;3;0;5324;0;0;0;0;4;0;7112;0;0;0;0;5;0;22249;0;0;0;0;0;0;6;0;16862;0;0;0;0;0;0;7;0;14452;0;0;0;0;8;0;14225;0;0;0;0;9;0;7767;0;0;0;0
24.12.19;23:50:00;1;349;7648;0;2;0;7713;0;0;0;0;3;0;5324;0;0;0;0;4;0;7112;0;0;0;0;5;0;22249;0;0;0;0;0;0;6;0;16862;0;0;0;0;0;0;7;0;14452;0;0;0;0;8;0;14225;0;0;0;0;9;0;7767;0;0;0;0
24.12.19;23:45:00;1;358;7619;0;2;0;7713;0;0;0;0;3;0;5324;0;0;0;0;4;0;7112;0;0;0;0;5;0;22249;0;0;0;0;0;0;6;0;16862;0;0;0;0;0;0;7;0;14452;0;0;0;0;8;0;14225;0;0;0;0;9;0;7767;0;0;0;0
24.12.19;23:40:00;1;323;7589;0;2;0;7713;0;0;0;0;3;0;5324;0;0;0;0;4;0;7112;0;0;0;0;5;0;22249;0;0;0;0;0;0;6;0;16862;0;0;0;0;0;0;7;0;14452;0;0;0;0;8;0;14225;0;0;0;0;9;0;7767;0;0;0;0
24.12.19;23:35:00;1;326;7562;0;2;0;7713;0;0;0;0;3;0;5324;0;0;0;0;4;0;7112;0;0;0;0;5;0;22249;0;0;0;0;0;0;6;0;16862;0;0;0;0;0;0;7;0;14452;0;0;0;0;8;0;14225;0;0;0;0;9;0;7767;0;0;0;0
24.12.19;23:30:00;1;315;7535;0;2;0;7713;0;0;0;0;3;0;5324;0;0;0;0;4;0;7112;0;0;0;0;5;0;22249;0;0;0;0;0;0;6;0;16862;0;0;0;0;0;0;7;0;14452;0;0;0;0;8;0;14225;0;0;0;0;9;0;7767;0;0;0;0
24.12.19;23:25:00;1;281;7509;0;2;0;7713;0;0;0;0;3;0;5324;0;0;0;0;4;0;7112;0;0;0;0;5;0;22249;0;0;0;0;0;0;6;0;16862;0;0;0;0;0;0;7;0;14452;0;0;0;0;8;0;14225;0;0;0;0;9;0;7767;0;0;0;0
24.12.19;23:20:00;1;281;7485;0;2;0;7713;0;0;0;0;3;0;5324;0;0;0;0;4;0;7112;0;0;0;0;5;0;22249;0;0;0;0;0;0;6;0;16862;0;0;0;0;0;0;7;0;14452;0;0;0;0;8;0;14225;0;0;0;0;9;0;7767;0;0;0;0
24.12.19;23:15:00;1;282;7462;0;2;0;7713;0;0;0;0;3;0;5324;0;0;0;0;4;0;7112;0;0;0;0;5;0;22249;0;0;0;0;0;0;6;0;16862;0;0;0;0;0;0;7;0;14452;0;0;0;0;8;0;14225;0;0;0;0;9;0;7767;0;0;0;0
24.12.19;23:10:00;1;281;7438;0;2;0;7713;0;0;0;0;3;0;5324;0;0;0;0;4;0;7112;0;0;0;0;5;0;22249;0;0;0;0;0;0;6;0;16862;0;0;0;0;0;0;7;0;14452;0;0;0;0;8;0;14225;0;0;0;0;9;0;7767;0;0;0;0
24.12.19;23:05:00;1;281;7415;0;2;0;7713;0;0;0;0;3;0;5324;0;0;0;0;4;0;7112;0;0;0;0;5;0;22249;0;0;0;0;0;0;6;0;16862;0;0;0;0;0;0;7;0;14452;0;0;0;0;8;0;14225;0;0;0;0;9;0;7767;0;0;0;0
24.12.19;23:00:00;1;293;7391;0;2;0;7713;0;0;0;0;3;0;5324;0;0;0;0;4;0;7112;0;0;0;0;5;0;22249;0;0;0;0;0;0;6;0;16862;0;0;0;0;0;0;7;0;14452;0;0;0;0;8;0;14225;0;0;0;0;9;0;7767;0;0;0;0
24.12.19;22:55:00;1;322;7366;0;2;0;7713;0;0;0;0;3;0;5324;0;0;0;0;4;0;7112;0;0;0;0;5;0;22249;2;0;0;0;0;0;6;0;16862;2;0;0;0;0;0;7;0;14452;0;0;0;0;8;0;14225;0;0;0;0;9;0;7767;0;0;0;0
24.12.19;22:50:00;1;325;7339;0;2;0;7713;0;0;0;0;3;0;5324;0;0;0;0;4;0;7112;0;0;0;0;5;0;22249;2;0;0;0;0;0;6;0;16862;2;0;0;0;0;0;7;0;14452;0;0;0;0;8;0;14225;0;0;0;0;9;0;7767;0;0;0;0
24.12.19;22:45:00;1;321;7312;0;2;0;7713;0;0;0;0;3;0;5324;0;0;0;0;4;0;7112;0;0;0;0;5;0;22249;2;0;0;0;0;0;6;0;16862;2;0;0;0;0;0;7;0;14452;0;0;0;0;8;0;14225;0;0;0;0;9;0;7767;0;0;0;0
24.12.19;22:40:00;1;281;7285;0;2;0;7713;0;0;0;0;3;0;5324;0;0;0;0;4;0;7112;0;0;0;0;5;0;22249;2;0;0;0;0;0;6;0;16862;2;0;0;0;0;0;7;0;14452;0;0;0;0;8;0;14225;0;0;0;0;9;0;7767;0;0;0;0
24.12.19;22:35:00;1;281;7262;0;2;0;7713;0;0;0;0;3;0;5324;0;0;0;0;4;0;7112;0;0;0;0;5;0;22249;2;0;0;0;0;0;6;0;16862;2;0;0;0;0;0;7;0;14452;0;0;0;0;8;0;14225;0;0;0;0;9;0;7767;0;0;0;0
24.12.19;22:30:00;1;281;7238;0;2;0;7713;0;0;0;0;3;0;5324;0;0;0;0;4;0;7112;0;0;0;0;5;0;22249;2;0;0;0;0;0;6;0;16862;2;0;0;0;0;0;7;0;14452;0;0;0;0;8;0;14225;0;0;0;0;9;0;7767;0;0;0;0
24.12.19;22:25:00;1;280;7215;0;2;0;7713;0;0;0;0;3;0;5324;0;0;0;0;4;0;7112;0;0;0;0;5;0;22249;2;0;0;0;0;0;6;0;16862;2;0;0;0;0;0;7;0;14452;0;0;0;0;8;0;14225;0;0;0;0;9;0;7767;0;0;0;0
24.12.19;22:20:00;1;279;7191;0;2;0;7713;0;0;0;0;3;0;5324;0;0;0;0;4;0;7112;0;0;0;0;5;0;22249;2;0;0;0;0;0;6;0;16862;2;0;0;0;0;0;7;0;14452;0;0;0;0;8;0;14225;0;0;0;0;9;0;7767;0;0;0;0
24.12.19;22:15:00;1;285;7168;0;2;0;7713;0;0;0;0;3;0;5324;0;0;0;0;4;0;7112;0;0;0;0;5;0;22249;2;0;0;0;0;0;6;0;16862;2;0;0;0;0;0;7;0;14452;0;0;0;0;8;0;14225;0;0;0;0;9;0;7767;0;0;0;0
24.12.19;22:10:00;1;315;7144;0;2;0;7713;0;0;0;0;3;0;5324;0;0;0;0;4;0;7112;0;0;0;0;5;0;22249;2;0;0;0;0;0;6;0;16862;2;0;0;0;0;0;7;0;14452;0;0;0;0;8;0;14225;0;0;0;0;9;0;7767;0;0;0;0
24.12.19;22:05:00;1;392;7116;0;2;0;7713;0;0;0;0;3;0;5324;0;0;0;0;4;0;7112;0;0;0;0;5;0;22249;2;0;0;0;0;0;6;0;16862;2;0;0;0;0;0;7;0;14452;0;0;0;0;8;0;14225;0;0;0;0;9;0;7767;0;0;0;0
24.12.19;22:00:00;1;399;7084;0;2;0;7713;0;0;0;0;3;0;5324;0;0;0;0;4;0;7112;0;0;0;0;5;0;22249;2;0;0;0;0;0;6;0;16862;2;0;0;0;0;0;7;0;14452;0;0;0;0;8;0;14225;0;0;0;0;9;0;7767;0;0;0;0
24.12.19;21:55:00;1;371;7050;0;2;0;7713;0;0;0;0;3;0;5324;0;0;0;0;4;0;7112;0;0;0;0;5;0;22249;2;0;0;0;0;0;6;0;16862;2;0;0;0;0;0;7;0;14452;0;0;0;0;8;0;14225;0;0;0;0;9;0;7767;0;0;0;0
24.12.19;21:50:00;1;366;7018;0;2;0;7713;0;0;0;0;3;0;5324;0;0;0;0;4;0;7112;0;0;0;0;5;0;22249;2;0;0;0;0;0;6;0;16862;2;0;0;0;0;0;7;0;14452;0;0;0;0;8;0;14225;0;0;0;0;9;0;7767;0;0;0;0
24.12.19;21:45:00;1;360;6988;0;2;0;7713;0;0;0;0;3;0;5324;0;0;0;0;4;0;7112;0;0;0;0;5;0;22249;2;0;0;0;0;0;6;0;16862;2;0;0;0;0;0;7;0;14452;0;0;0;0;8;0;14225;0;0;0;0;9;0;7767;0;0;0;0
24.12.19;21:40:00;1;350;6958;0;2;0;7713;0;0;0;0;3;0;5324;0;0;0;0;4;0;7112;0;0;0;0;5;0;22249;2;0;0;0;0;0;6;0;16862;2;0;0;0;0;0;7;0;14452;0;0;0;0;8;0;14225;0;0;0;0;9;0;7767;0;0;0;0
24.12.19;21:35:00;1;339;6929;0;2;0;7713;0;0;0;0;3;0;5324;0;0;0;0;4;0;7112;0;0;0;0;5;0;22249;2;0;0;0;0;0;6;0;16862;2;0;0;0;0;0;7;0;14452;0;0;0;0;8;0;14225;0;0;0;0;9;0;7767;0;0;0;0
24.12.19;21:30:00;1;285;6902;0;2;0;7713;0;0;0;0;3;0;5324;0;0;0;0;4;0;7112;0;0;0;0;5;0;22249;2;0;0;0;0;0;6;0;16862;2;0;0;0;0;0;7;0;14452;0;0;0;0;8;0;14225;0;0;0;0;9;0;7767;0;0;0;0
24.12.19;21:25:00;1;285;6878;0;2;0;7713;0;0;0;0;3;0;5324;0;0;0;0;4;0;7112;0;0;0;0;5;0;22249;2;0;0;0;0;0;6;0;16862;2;0;0;0;0;0;7;0;14452;0;0;0;0;8;0;14225;0;0;0;0;9;0;7767;0;0;0;0
24.12.19;21:20:00;1;313;6854;0;2;0;7713;0;0;0;0;3;0;5324;0;0;0;0;4;0;7112;0;0;0;0;5;0;22249;2;0;0;0;0;0;6;0;16862;2;0;0;0;0;0;7;0;14452;0;0;0;0;8;0;14225;0;0;0;0;9;0;7767;0;0;0;0
24.12.19;21:15:00;1;327;6827;0;2;0;7713;0;0;0;0;3;0;5324;0;0;0;0;4;0;7112;0;0;0;0;5;0;22249;2;0;0;0;0;0;6;0;16862;2;0;0;0;0;0;7;0;14452;0;0;0;0;8;0;14225;0;0;0;0;9;0;7767;0;0;0;0
24.12.19;21:10:00;1;328;6800;0;2;0;7713;0;0;0;0;3;0;5324;0;0;0;0;4;0;7112;0;0;0;0;5;0;22249;2;0;0;0;0;0;6;0;16862;2;0;0;0;0;0;7;0;14452;0;0;0;0;8;0;14225;0;0;0;0;9;0;7767;0;0;0;0
24.12.19;21:05:00;1;405;6772;0;2;0;7713;0;0;0;0;3;0;5324;0;0;0;0;4;0;7112;0;0;0;0;5;0;22249;2;0;0;0;0;0;6;0;16862;2;0;0;0;0;0;7;0;14452;0;0;0;0;8;0;14225;0;0;0;0;9;0;7767;0;0;0;0
24.12.19;21:00:00;1;285;6746;0;2;0;7713;0;0;0;0;3;0;5324;0;0;0;0;4;0;7112;0;0;0;0;5;0;22249;2;0;0;0;0;0;6;0;16862;2;0;0;0;0;0;7;0;14452;0;0;0;0;8;0;14225;0;0;0;0;9;0;7767;0;0;0;0
24.12.19;20:55:00;1;286;6722;0;2;0;7713;0;0;0;0;3;0;5324;0;0;0;0;4;0;7112;0;0;0;0;5;0;22249;2;0;0;0;0;0;6;0;16862;2;0;0;0;0;0;7;0;14452;0;0;0;0;8;0;14225;0;0;0;0;9;0;7767;0;0;0;0
24.12.19;20:50:00;1;287;6698;0;2;0;7713;0;0;0;0;3;0;5324;0;0;0;0;4;0;7112;0;0;0;0;5;0;22249;2;0;0;0;0;0;6;0;16862;2;0;0;0;0;0;7;0;14452;0;0;0;0;8;0;14225;0;0;0;0;9;0;7767;0;0;0;0
24.12.19;20:45:00;1;286;6674;0;2;0;7713;0;0;0;0;3;0;5324;0;0;0;0;4;0;7112;0;0;0;0;5;0;22249;2;0;0;0;0;0;6;0;16862;2;0;0;0;0;0;7;0;14452;0;0;0;0;8;0;14225;0;0;0;0;9;0;7767;0;0;0;0
24.12.19;20:40:00;1;297;6650;0;2;0;7713;0;0;0;0;3;0;5324;0;0;0;0;4;0;7112;0;0;0;0;5;0;22249;2;0;0;0;0;0;6;0;16862;2;0;0;0;0;0;7;0;14452;0;0;0;0;8;0;14225;0;0;0;0;9;0;7767;0;0;0;0
24.12.19;20:35:00;1;286;6625;0;2;0;7713;0;0;0;0;3;0;5324;0;0;0;0;4;0;7112;0;0;0;0;5;0;22249;2;0;0;0;0;0;6;0;16862;2;0;0;0;0;0;7;0;14452;0;0;0;0;8;0;14225;0;0;0;0;9;0;7767;0;0;0;0
24.12.19;20:30:00;1;309;6601;0;2;0;7713;0;0;0;0;3;0;5324;0;0;0;0;4;0;7112;0;0;0;0;5;0;22249;2;0;0;0;0;0;6;0;16862;2;0;0;0;0;0;7;0;14452;0;0;0;0;8;0;14225;0;0;0;0;9;0;7767;0;0;0;0
24.12.19;20:25:00;1;325;6575;0;2;0;7713;0;0;0;0;3;0;5324;0;0;0;0;4;0;7112;0;0;0;0;5;0;22249;2;0;0;0;0;0;6;0;16862;2;0;0;0;0;0;7;0;14452;0;0;0;0;8;0;14225;0;0;0;0;9;0;7767;0;0;0;0
24.12.19;20:20:00;1;327;6548;0;2;0;7713;0;0;0;0;3;0;5324;0;0;0;0;4;0;7112;0;0;0;0;5;0;22249;2;0;0;0;0;0;6;0;16862;2;0;0;0;0;0;7;0;14452;0;0;0;0;8;0;14225;0;0;0;0;9;0;7767;0;0;0;0
24.12.19;20:15:00;1;296;6521;0;2;0;7713;0;0;0;0;3;0;5324;0;0;0;0;4;0;7112;0;0;0;0;5;0;22249;2;0;0;0;0;0;6;0;16862;2;0;0;0;0;0;7;0;14452;0;0;0;0;8;0;14225;0;0;0;0;9;0;7767;0;0;0;0
24.12.19;20:10:00;1;285;6495;0;2;0;7713;0;0;0;0;3;0;5324;0;0;0;0;4;0;7112;0;0;0;0;5;0;22249;2;0;0;0;0;0;6;0;16862;2;0;0;0;0;0;7;0;14452;0;0;0;0;8;0;14225;0;0;0;0;9;0;7767;0;0;0;0
24.12.19;20:05:00;1;284;6471;0;2;0;7713;0;0;0;0;3;0;5324;0;0;0;0;4;0;7112;0;0;0;0;5;0;22249;2;0;0;0;0;0;6;0;16862;2;0;0;0;0;0;7;0;14452;0;0;0;0;8;0;14225;0;0;0;0;9;0;7767;0;0;0;0
24.12.19;20:00:00;1;320;6447;0;2;0;7713;0;0;0;0;3;0;5324;0;0;0;0;4;0;7112;0;0;0;0;5;0;22249;2;0;0;0;0;0;6;0;16862;2;0;0;0;0;0;7;0;14452;0;0;0;0;8;0;14225;0;0;0;0;9;0;7767;0;0;0;0
24.12.19;19:55:00;1;359;6420;0;2;0;7713;0;0;0;0;3;0;5324;0;0;0;0;4;0;7112;0;0;0;0;5;0;22249;2;0;0;0;0;0;6;0;16862;2;0;0;0;0;0;7;0;14452;0;0;0;0;8;0;14225;0;0;0;0;9;0;7767;0;0;0;0
24.12.19;19:50:00;1;382;6389;0;2;0;7713;0;0;0;0;3;0;5324;0;0;0;0;4;0;7112;0;0;0;0;5;0;22249;2;0;0;0;0;0;6;0;16862;2;0;0;0;0;0;7;0;14452;0;0;0;0;8;0;14225;0;0;0;0;9;0;7767;0;0;0;0
24.12.19;19:45:00;1;350;6358;0;2;0;7713;0;0;0;0;3;0;5324;0;0;0;0;4;0;7112;0;0;0;0;5;0;22249;2;0;0;0;0;0;6;0;16862;2;0;0;0;0;0;7;0;14452;0;0;0;0;8;0;14225;0;0;0;0;9;0;7767;0;0;0;0
24.12.19;19:40:00;1;391;6328;0;2;0;7713;0;0;0;0;3;0;5324;0;0;0;0;4;0;7112;0;0;0;0;5;0;22249;2;0;0;0;0;0;6;0;16862;2;0;0;0;0;0;7;0;14452;0;0;0;0;8;0;14225;0;0;0;0;9;0;7767;0;0;0;0
24.12.19;19:35:00;1;396;6296;0;2;0;7713;0;0;0;0;3;0;5324;0;0;0;0;4;0;7112;0;0;0;0;5;0;22249;2;0;0;0;0;0;6;0;16862;2;0;0;0;0;0;7;0;14452;0;0;0;0;8;0;14225;0;0;0;0;9;0;7767;0;0;0;0
24.12.19;19:30:00;1;423;6263;0;2;0;7713;0;0;0;0;3;0;5324;0;0;0;0;4;0;7112;0;0;0;0;5;0;22249;2;0;0;0;0;0;6;0;16862;2;0;0;0;0;0;7;0;14452;0;0;0;0;8;0;14225;0;0;0;0;9;0;7767;0;0;0;0
24.12.19;19:25:00;1;305;6228;0;2;0;7713;0;0;0;0;3;0;5324;0;0;0;0;4;0;7112;0;0;0;0;5;0;22249;2;0;0;0;0;0;6;0;16862;2;0;0;0;0;0;7;0;14452;0;0;0;0;8;0;14225;0;0;0;0;9;0;7767;0;0;0;0
24.12.19;19:20:00;1;284;6203;0;2;0;7713;0;0;0;0;3;0;5324;0;0;0;0;4;0;7112;0;0;0;0;5;0;22249;2;0;0;0;0;0;6;0;16862;2;0;0;0;0;0;7;0;14452;0;0;0;0;8;0;14225;0;0;0;0;9;0;7767;0;0;0;0
24.12.19;19:15:00;1;287;6180;0;2;0;7713;0;0;0;0;3;0;5324;0;0;0;0;4;0;7112;0;0;0;0;5;0;22249;2;0;0;0;0;0;6;0;16862;2;0;0;0;0;0;7;0;14452;0;0;0;0;8;0;14225;0;0;0;0;9;0;7767;0;0;0;0
24.12.19;19:10:00;1;284;6156;0;2;0;7713;0;0;0;0;3;0;5324;0;0;0;0;4;0;7112;0;0;0;0;5;0;22249;2;0;0;0;0;0;6;0;16862;2;0;0;0;0;0;7;0;14452;0;0;0;0;8;0;14225;0;0;0;0;9;0;7767;0;0;0;0
24.12.19;19:05:00;1;283;6132;0;2;0;7713;0;0;0;0;3;0;5324;0;0;0;0;4;0;7112;0;0;0;0;5;0;22249;2;0;0;0;0;0;6;0;16862;2;0;0;0;0;0;7;0;14452;0;0;0;0;8;0;14225;0;0;0;0;9;0;7767;0;0;0;0
24.12.19;19:00:00;1;283;6108;0;2;0;7713;0;0;0;0;3;0;5324;0;0;0;0;4;0;7112;0;0;0;0;5;0;22249;2;0;0;0;0;0;6;0;16862;2;0;0;0;0;0;7;0;14452;0;0;0;0;8;0;14225;0;0;0;0;9;0;7767;0;0;0;0
24.12.19;18:55:00;1;323;6084;0;2;0;7713;0;0;0;0;3;0;5324;0;0;0;0;4;0;7112;0;0;0;0;5;0;22249;2;0;0;0;0;0;6;0;16862;2;0;0;0;0;0;7;0;14452;0;0;0;0;8;0;14225;0;0;0;0;9;0;7767;0;0;0;0
24.12.19;18:50:00;1;324;6057;0;2;0;7713;0;0;0;0;3;0;5324;0;0;0;0;4;0;7112;0;0;0;0;5;0;22249;2;0;0;0;0;0;6;0;16862;2;0;0;0;0;0;7;0;14452;0;0;0;0;8;0;14225;0;0;0;0;9;0;7767;0;0;0;0
24.12.19;18:45:00;1;327;6030;0;2;0;7713;0;0;0;0;3;0;5324;0;0;0;0;4;0;7112;0;0;0;0;5;0;22249;2;0;0;0;0;0;6;0;16862;2;0;0;0;0;0;7;0;14452;0;0;0;0;8;0;14225;0;0;0;0;9;0;7767;0;0;0;0
24.12.19;18:40:00;1;299;6003;0;2;0;7713;0;0;0;0;3;0;5324;0;0;0;0;4;0;7112;0;0;0;0;5;0;22249;2;0;0;0;0;0;6;0;16862;2;0;0;0;0;0;7;0;14452;0;0;0;0;8;0;14225;0;0;0;0;9;0;7767;0;0;0;0
24.12.19;18:35:00;1;286;5978;0;2;0;7713;0;0;0;0;3;0;5324;0;0;0;0;4;0;7112;0;0;0;0;5;0;22249;2;0;0;0;0;0;6;0;16862;2;0;0;0;0;0;7;0;14452;0;0;0;0;8;0;14225;0;0;0;0;9;0;7767;0;0;0;0
24.12.19;18:30:00;1;285;5954;0;2;0;7713;0;0;0;0;3;0;5324;0;0;0;0;4;0;7112;0;0;0;0;5;0;22249;2;0;0;0;0;0;6;0;16862;2;0;0;0;0;0;7;0;14452;0;0;0;0;8;0;14225;0;0;0;0;9;0;7767;0;0;0;0
24.12.19;18:25:00;1;290;5930;0;2;0;7713;0;0;0;0;3;0;5324;0;0;0;0;4;0;7112;0;0;0;0;5;0;22249;2;0;0;0;0;0;6;0;16862;2;0;0;0;0;0;7;0;14452;0;0;0;0;8;0;14225;0;0;0;0;9;0;7767;0;0;0;0
24.12.19;18:20:00;1;285;5906;0;2;0;7713;0;0;0;0;3;0;5324;0;0;0;0;4;0;7112;0;0;0;0;5;0;22249;2;0;0;0;0;0;6;0;16862;2;0;0;0;0;0;7;0;14452;0;0;0;0;8;0;14225;0;0;0;0;9;0;7767;0;0;0;0
24.12.19;18:15:00;1;285;5882;0;2;0;7713;0;0;0;0;3;0;5324;0;0;0;0;4;0;7112;0;0;0;0;5;0;22249;2;0;0;0;0;0;6;0;16862;2;0;0;0;0;0;7;0;14452;0;0;0;0;8;0;14225;0;0;0;0;9;0;7767;0;0;0;0
24.12.19;18:10:00;1;293;5858;0;2;0;7713;0;0;0;0;3;0;5324;0;0;0;0;4;0;7112;0;0;0;0;5;0;22249;2;0;0;0;0;0;6;0;16862;2;0;0;0;0;0;7;0;14452;0;0;0;0;8;0;14225;0;0;0;0;9;0;7767;0;0;0;0
24.12.19;18:05:00;1;326;5834;0;2;0;7713;0;0;0;0;3;0;5324;0;0;0;0;4;0;7112;0;0;0;0;5;0;22249;2;0;0;0;0;0;6;0;16862;2;0;0;0;0;0;7;0;14452;0;0;0;0;8;0;14225;0;0;0;0;9;0;7767;0;0;0;0
24.12.19;18:00:00;1;328;5806;0;2;0;7713;0;0;0;0;3;0;5324;0;0;0;0;4;0;7112;0;0;0;0;5;0;22249;2;0;0;0;0;0;6;0;16862;2;0;0;0;0;0;7;0;14452;0;0;0;0;8;0;14225;0;0;0;0;9;0;7767;0;0;0;0
24.12.19;17:55:00;1;339;5779;0;2;0;7713;0;0;0;0;3;0;5324;0;0;0;0;4;0;7112;0;0;0;0;5;0;22249;2;0;0;0;0;0;6;0;16862;2;0;0;0;0;0;7;0;14452;0;0;0;0;8;0;14225;0;0;0;0;9;0;7767;0;0;0;0
24.12.19;17:50:00;1;305;5750;0;2;0;7713;0;0;0;0;3;0;5324;0;0;0;0;4;0;7112;0;0;0;0;5;0;22249;2;0;0;0;0;0;6;0;16862;2;0;0;0;0;0;7;0;14452;0;0;0;0;8;0;14225;0;0;0;0;9;0;7767;0;0;0;0
24.12.19;17:45:00;1;348;5723;0;2;0;7713;0;0;0;0;3;0;5324;0;0;0;0;4;0;7112;0;0;0;0;5;0;22249;2;0;0;0;0;0;6;0;16862;2;0;0;0;0;0;7;0;14452;0;0;0;0;8;0;14225;0;0;0;0;9;0;7767;0;0;0;0
24.12.19;17:40:00;1;350;5694;0;2;0;7713;0;0;0;0;3;0;5324;0;0;0;0;4;0;7112;0;0;0;0;5;0;22249;2;0;0;0;0;0;6;0;16862;2;0;0;0;0;0;7;0;14452;0;0;0;0;8;0;14225;0;0;0;0;9;0;7767;0;0;0;0
24.12.19;17:35:00;1;353;5665;0;2;0;7713;0;0;0;0;3;0;5324;0;0;0;0;4;0;7112;0;0;0;0;5;0;22249;2;0;0;0;0;0;6;0;16862;2;0;0;0;0;0;7;0;14452;0;0;0;0;8;0;14225;0;0;0;0;9;0;7767;0;0;0;0
24.12.19;17:30:00;1;350;5635;0;2;0;7713;0;0;0;0;3;0;5324;0;0;0;0;4;0;7112;0;0;0;0;5;0;22249;2;0;0;0;0;0;6;0;16862;2;0;0;0;0;0;7;0;14452;0;0;0;0;8;0;14225;0;0;0;0;9;0;7767;0;0;0;0
24.12.19;17:25:00;1;351;5606;0;2;0;7713;0;0;0;0;3;0;5324;0;0;0;0;4;0;7112;0;0;0;0;5;0;22249;2;0;0;0;0;0;6;0;16862;2;0;0;0;0;0;7;0;14452;0;0;0;0;8;0;14225;0;0;0;0;9;0;7767;0;0;0;0
24.12.19;17:20:00;1;354;5577;0;2;0;7713;0;0;0;0;3;0;5324;0;0;0;0;4;0;7112;0;0;0;0;5;0;22249;2;0;0;0;0;0;6;0;16862;2;0;0;0;0;0;7;0;14452;0;0;0;0;8;0;14225;0;0;0;0;9;0;7767;0;0;0;0
24.12.19;17:15:00;1;348;5547;0;2;0;7713;0;0;0;0;3;0;5324;0;0;0;0;4;0;7112;0;0;0;0;5;0;22249;2;0;0;0;0;0;6;0;16862;2;0;0;0;0;0;7;0;14452;0;0;0;0;8;0;14225;0;0;0;0;9;0;7767;0;0;0;0
24.12.19;17:10:00;1;325;5518;0;2;0;7713;0;0;0;0;3;0;5324;0;0;0;0;4;0;7112;0;0;0;0;5;0;22249;2;0;0;0;0;0;6;0;16862;2;0;0;0;0;0;7;0;14452;0;0;0;0;8;0;14225;0;0;0;0;9;0;7767;0;0;0;0
24.12.19;17:05:00;1;326;5490;0;2;0;7713;0;0;0;0;3;0;5324;0;0;0;0;4;0;7112;0;0;0;0;5;0;22249;2;0;0;0;0;0;6;0;16862;2;0;0;0;0;0;7;0;14452;0;0;0;0;8;0;14225;0;0;0;0;9;0;7767;0;0;0;0
24.12.19;17:00:00;1;297;5463;0;2;0;7713;0;0;0;0;3;0;5324;0;0;0;0;4;0;7112;0;0;0;0;5;0;22249;2;0;0;0;0;0;6;0;16862;2;0;0;0;0;0;7;0;14452;0;0;0;0;8;0;14225;0;0;0;0;9;0;7767;0;0;0;0
24.12.19;16:55:00;1;295;5438;0;2;0;7713;0;0;0;0;3;0;5324;0;0;0;0;4;0;7112;0;0;0;0;5;0;22249;2;0;0;0;0;0;6;0;16862;2;0;0;0;0;0;7;0;14452;0;0;0;0;8;0;14225;0;0;0;0;9;0;7767;0;0;0;0
24.12.19;16:50:00;1;283;5414;0;2;0;7713;0;0;0;0;3;0;5324;0;0;0;0;4;0;7112;0;0;0;0;5;0;22249;2;0;0;0;0;0;6;0;16862;2;0;0;0;0;0;7;0;14452;0;0;0;0;8;0;14225;0;0;0;0;9;0;7767;0;0;0;0
24.12.19;16:45:00;1;283;5390;0;2;0;7713;0;0;0;0;3;0;5324;0;0;0;0;4;0;7112;0;0;0;0;5;0;22249;2;0;0;0;0;0;6;0;16862;2;0;0;0;0;0;7;0;14452;0;0;0;0;8;0;14225;0;0;0;0;9;0;7767;0;0;0;0
24.12.19;16:40:00;1;279;5366;0;2;0;7713;0;0;0;0;3;0;5324;0;0;0;0;4;0;7112;0;0;0;0;5;0;22249;2;0;0;0;0;0;6;0;16862;2;0;0;0;0;0;7;0;14452;0;0;0;0;8;0;14225;0;0;0;0;9;0;7767;0;0;0;0
24.12.19;16:35:00;1;241;5343;0;2;0;7713;0;0;0;0;3;0;5324;0;0;0;0;4;0;7112;0;0;0;0;5;0;22249;2;0;0;0;0;0;6;0;16862;2;0;0;0;0;0;7;0;14452;0;0;0;0;8;0;14225;0;0;0;0;9;0;7767;0;0;0;0
24.12.19;16:30:00;1;246;5323;0;2;0;7713;0;0;0;0;3;0;5324;0;0;85;5;4;0;7112;0;0;0;0;5;0;22249;2;0;0;0;0;0;6;0;16862;2;0;0;0;0;0;7;0;14452;0;0;0;0;8;0;14225;0;0;0;0;9;0;7767;0;0;0;0
24.12.19;16:25:00;1;277;5302;0;2;0;7713;0;0;0;0;3;0;5324;6;0;259;15;4;0;7112;0;0;0;0;5;0;22249;2;0;0;0;0;0;6;0;16862;2;0;0;0;0;0;7;0;14452;0;0;0;0;8;0;14225;0;0;0;0;9;0;7767;0;0;0;0
24.12.19;16:20:00;1;281;5279;0;2;0;7713;2;0;269;12;3;0;5324;6;0;299;15;4;0;7112;0;0;32;6;5;0;22249;2;0;0;0;0;0;6;0;16862;2;0;0;0;0;0;7;0;14452;0;0;0;0;8;0;14225;0;0;0;0;9;0;7767;0;0;0;0
24.12.19;16:15:00;1;278;5255;0;2;0;7713;6;0;309;12;3;0;5324;6;0;364;15;4;0;7112;2;0;90;13;5;0;22249;2;3;7;108;106;16;6;0;16862;2;0;0;0;0;3;7;0;14452;0;0;0;0;8;0;14225;0;0;0;0;9;0;7767;0;0;0;0
24.12.19;16:10:00;1;233;5232;0;2;0;7713;6;0;326;12;3;0;5324;6;0;395;15;4;0;7112;1;0;107;13;5;0;22249;1;0;2;212;210;19;6;0;16862;2;0;0;0;0;7;7;0;14452;0;0;0;0;8;0;14225;0;0;0;0;9;0;7767;0;0;0;0
24.12.19;16:05:00;1;241;5212;0;2;0;7713;6;0;346;12;3;0;5324;6;2;407;16;4;0;7112;1;0;132;14;5;0;22249;26;0;5;360;367;24;6;0;16862;2;1;0;42;41;9;7;0;14452;0;0;0;0;8;0;14225;0;0;0;0;9;0;7767;0;0;0;0
24.12.19;16:00:00;1;243;5192;0;2;0;7713;6;0;336;13;3;0;5324;6;0;412;16;4;0;7112;1;0;119;14;5;0;22249;23;0;2;285;283;20;6;0;16862;1;3;1;59;96;14;7;0;14452;0;0;0;0;8;0;14225;0;0;0;0;9;0;7767;0;0;0;0
24.12.19;15:55:00;1;235;5172;0;2;0;7713;6;0;352;13;3;0;5324;6;1;422;16;4;0;7112;1;0;139;14;5;0;22249;23;0;0;378;376;25;6;0;16862;23;6;2;240;438;23;7;0;14452;0;0;186;15;8;0;14225;0;0;229;15;9;0;7767;2;0;287;13
24.12.19;15:50:00;1;236;5152;0;2;0;7713;6;0;365;13;3;0;5324;4;2;438;16;4;0;7112;1;0;160;15;5;0;22249;26;0;0;397;427;25;6;0;16862;23;5;5;474;250;23;7;0;14452;6;0;302;18;8;0;14225;6;0;309;18;9;0;7767;6;0;325;13
24.12.19;15:45:00;1;234;5132;0;2;0;7713;6;0;377;13;3;1;5324;3;7;415;16;4;0;7112;1;0;183;15;5;8;22249;1;0;0;398;616;25;6;0;16862;23;7;2;181;548;24;7;0;14452;6;0;342;18;8;0;14225;6;0;348;18;9;0;7767;6;0;368;14
24.12.19;15:40:00;1;249;5113;0;2;0;7713;6;0;400;13;3;1;5324;6;4;480;16;4;0;7112;3;0;200;16;5;20;22248;1;2;3;407;644;26;6;0;16862;23;6;1;264;577;24;7;0;14452;6;0;429;19;8;0;14225;6;0;437;18;9;0;7767;3;1;451;14
24.12.19;15:35:00;1;296;5092;0;2;0;7713;6;0;403;14;3;0;5324;6;4;491;17;4;0;7112;1;0;221;16;5;35;22247;1;4;7;400;634;26;6;28;16862;1;10;11;491;464;25;7;0;14452;3;3;409;19;8;0;14225;4;3;412;18;9;0;7767;6;1;465;14
24.12.19;15:30:00;1;344;5066;0;2;4;7713;6;11;408;14;3;2;5324;6;14;478;17;4;0;7112;3;0;207;16;5;104;22243;4;33;35;372;588;27;6;68;16859;4;33;35;441;409;26;7;0;14452;6;5;454;19;8;2;14225;3;5;457;19;9;3;7767;6;4;503;14
24.12.19;15:25:00;1;342;5038;0;2;4;7712;6;9;407;14;3;0;5324;6;6;511;17;4;0;7112;3;0;229;16;5;101;22234;4;28;31;372;588;27;6;48;16853;4;30;29;458;479;25;7;1;14452;6;4;459;19;8;1;14225;6;8;443;19;9;0;7767;6;3;508;15
24.12.19;15:20:00;1;300;5010;0;2;0;7712;6;0;407;15;3;0;5324;4;5;488;17;4;0;7112;3;0;213;17;5;72;22226;4;6;18;372;588;27;6;0;16850;8;0;5;560;583;25;7;0;14452;6;2;431;20;8;0;14225;6;2;436;19;9;1;7767;6;2;474;15
24.12.19;15:15:00;1;301;4985;0;2;6;7712;6;11;406;15;3;5;5324;3;12;486;17;4;2;7112;3;2;205;17;5;95;22220;4;23;27;372;588;27;6;66;16849;4;42;53;472;447;26;7;0;14452;6;2;439;20;8;0;14225;6;1;452;20;9;0;7766;6;1;495;15
24.12.19;15:10:00;1;319;4960;0;2;85;7711;4;117;369;16;3;22;5323;6;36;519;18;4;48;7112;3;50;199;17;5;218;22212;4;95;89;372;588;27;6;146;16843;4;67;71;472;447;26;7;57;14452;6;81;459;21;8;51;14225;6;85;448;20;9;1;7766;4;6;544;16
24.12.19;15:05:00;1;348;4933;0;2;75;7705;4;108;374;16;3;14;5321;4;25;513;18;4;44;7108;3;46;199;18;5;205;22193;4;87;81;372;588;27;6;142;16830;4;67;74;471;447;26;7;65;14448;4;95;398;21;8;54;14221;4;95;455;20;9;4;7766;6;8;547;16
24.12.19;15:00:00;1;314;4903;0;2;60;7698;4;92;360;16;3;6;5320;6;12;527;18;4;27;7104;3;28;199;18;5;178;22176;4;69;64;372;588;28;6;123;16819;4;62;72;472;447;27;7;47;14442;4;75;360;21;8;42;14216;4;81;394;20;9;4;7766;6;9;534;16
24.12.19;14:55:00;1;292;4878;0;2;18;7693;4;28;402;16;3;5;5319;6;16;495;18;4;18;7102;3;19;199;18;5;150;22161;4;52;51;372;588;28;6;102;16809;4;46;53;472;447;27;7;4;14438;6;9;478;21;8;8;14213;6;16;457;21;9;2;7766;6;5;531;16
24.12.19;14:50:00;1;348;4853;0;2;41;7691;4;73;356;17;3;3;5319;6;9;515;19;4;7;7101;3;8;199;18;5;144;22149;4;45;47;372;588;28;6;96;16800;4;42;53;472;447;27;7;4;14438;6;8;470;22;8;5;14212;6;8;470;21;9;0;7765;6;6;517;17
24.12.19;14:45:00;1;322;4824;0;2;68;7688;4;101;358;17;3;5;5319;6;11;532;19;4;31;7100;3;32;198;19;5;195;22137;4;81;73;372;588;28;6;134;16792;4;65;71;472;447;27;7;36;14438;6;61;410;22;8;26;14212;6;49;445;22;9;2;7765;6;6;537;17
24.12.19;14:40:00;1;305;4797;0;2;101;7682;4;134;358;17;3;46;5318;6;77;484;20;4;59;7097;3;61;197;19;5;255;22120;4;109;102;372;588;28;6;173;16780;4;86;87;472;447;27;7;78;14435;4;117;419;22;8;80;14210;4;116;441;22;9;6;7765;4;11;543;18
24.12.19;14:35:00;1;241;4772;0;2;101;7674;4;136;369;18;3;55;5315;4;93;448;20;4;62;7092;3;64;198;19;5;255;22099;4;109;100;372;588;28;6;174;16766;4;97;97;472;447;27;7;86;14428;4;118;424;23;8;83;14203;4;123;426;22;9;22;7764;3;34;498;18
24.12.19;14:30:00;1;237;4751;0;2;109;7666;4;143;366;18;3;57;5310;4;99;476;20;4;69;7087;3;72;198;20;5;273;22078;4;120;110;372;588;28;6;184;16751;4;85;86;472;447;27;7;80;14421;4;127;439;23;8;97;14196;4;129;415;23;9;11;7762;6;15;544;19
24.12.19;14:25:00;1;259;4730;0;2;141;7657;4;177;368;19;3;79;5305;4;116;481;21;4;96;7082;3;99;209;20;5;341;22055;4;158;140;378;588;29;6;225;16736;4;118;124;472;447;27;7;133;14414;4;159;439;23;8;119;14188;4;160;418;23;9;39;7762;6;53;527;19
24.12.19;14:20:00;1;233;4708;0;2;196;7645;4;235;376;19;3;113;5299;4;153;506;21;4;155;7074;5;161;224;20;5;433;22026;4;199;172;395;588;29;6;292;16716;4;157;155;472;447;27;7;183;14404;4;229;442;24;8;195;14178;4;230;447;23;9;104;7759;4;133;490;20
24.12.19;14:15:00;1;237;4689;0;2;234;7629;4;274;379;20;3;139;5290;4;181;496;21;4;189;7061;5;197;226;21;5;520;21990;4;251;219;389;612;29;6;390;16692;4;197;215;554;539;27;7;233;14388;4;269;448;24;8;228;14162;4;268;448;24;9;122;7750;4;154;494;21
24.12.19;14:10:00;1;235;4669;0;2;374;7609;4;422;395;20;3;229;5278;4;276;493;22;4;319;7045;5;332;231;21;5;804;21945;4;407;338;410;636;29;6;596;16658;4;303;313;569;550;27;7;386;14369;4;429;459;25;8;387;14143;4;433;452;24;9;208;7740;4;243;507;21
24.12.19;14:05:00;1;250;4649;0;2;459;7579;4;508;394;21;3;282;5259;4;331;510;22;4;397;7019;5;414;233;21;5;963;21876;4;479;405;407;656;30;6;725;16607;4;403;417;576;558;28;7;512;14337;4;558;469;25;8;508;14111;4;558;452;25;9;271;7723;4;313;522;22
24.12.19;14:00:00;1;347;4627;0;2;457;7540;4;506;394;22;3;286;5236;4;334;500;23;4;392;6986;5;408;233;22;5;953;21796;4;479;405;415;642;30;6;720;16547;4;327;329;577;566;28;7;550;14295;4;597;467;26;8;557;14069;4;605;463;25;9;295;7700;4;337;516;22
24.12.19;13:55:00;1;360;4598;0;2;431;7502;4;480;390;22;3;268;5212;4;313;503;23;4;364;6953;5;379;234;22;5;938;21718;4;461;399;413;633;30;6;706;16487;4;359;369;576;559;28;7;524;14249;4;566;459;26;8;523;14023;4;565;462;26;9;273;7676;4;314;511;23
24.12.19;13:50:00;1;488;4566;0;2;655;7467;4;712;395;23;3;405;5190;4;457;482;24;4;551;6923;5;573;238;23;5;1369;21638;4;703;584;420;667;31;6;1037;16428;4;511;511;583;553;28;7;773;14206;4;835;448;27;8;782;13980;4;837;465;26;9;413;7653;4;461;510;24
24.12.19;13:45:00;1;447;4525;0;2;798;7412;4;860;397;24;3;505;5156;4;563;508;24;4;686;6878;5;714;241;23;5;1629;21522;4;832;707;419;672;31;6;1242;16340;4;659;662;581;563;28;7;945;14141;4;1007;471;27;8;940;13914;4;996;462;27;9;501;7619;4;554;523;24